www.pogodaiklimat.ru

Погода и климат >> Архив погоды >> Аргентина >> Buenos Aires


ПОГОДА в Buenos Aires

  • Прогноз погоды в Buenos Aires
  • Монитор погоды в Buenos Aires
  • Климат города

АРХИВ ПОГОДЫ в Buenos Aires

Время (UTC), дата Ветер
(напр.,м/с)
 
Видим.   Явления Облачность Т
(С)
Тd
(С)
f
(%)
Тe
(С)
Тes
(С)
Комфортность P
(гПа)
Po
(гПа)
Тmin
(С)
Tmax
(С)
R
(мм)
R24
(мм)
S
(см)
15 18.04 СЗ 2 10 км 9/5 600 м
[Sc Ac As]
+18.6 +13.0 70 +20 +22 1023.2 1020.2
18 18.04 ЮВ 2 10 км 10/5 600 м
[Sc Ac As]
+19.3 +14.2 72 +22 +23 комфорт 1020.5 1017.6
21 18.04 В 2 10 км 10/5 600 м
[Sc Ac As]
+19.1 +14.7 76 +21 +21 комфорт 1020.0 1017.0
00 19.04 В 2 10 км 8/6 600 м
[Sc Ac As Cs]
+18.2 +15.5 84 +19 +19 1019.6 1016.6 +17.4 +20.2
03 19.04 СВ 3 10 км 10/1 600 м
[Sc Ac As Cs]
+18.7 +15.3 81 +20 +20 1017.8 1014.8
06 19.04 С 2 10 км 9/5 600 м
[Sc Ac As]
+18.1 +15.2 83 +19 +19 1017.5 1014.5
09 19.04 СВ 1 9000 м слабая морось 10/6 450 м
[St Ac As]
+17.8 +15.1 84 +19 +19 1016.0 1013.0
12 19.04 С 3 10 км {морось} 10/10 450 м
[Frnb]
+18.0 +14.9 82 +18 +18 1016.0 1013.0 +17.6 +18.9 0.0
15 19.04 СВ 2 7000 м слабая морось 10/5 360 м
[Frnb As op]
+17.8 +16.3 91 +18 +19 1015.2 1012.2
18 19.04 СВ 1 8000 м слабая морось 10/5 360 м
[Frnb Ac As]
+18.1 +16.6 91 +19 +21 1012.3 1009.3 0.3
21 19.04 С 2 10 км {морось} 10/10 450 м
[Frnb]
+18.8 +16.8 88 +21 +21 комфорт 1011.2 1008.2
00 20.04 ЮВ 1 10 км {морось} 10/10 450 м
[St]
+18.4 +17.4 94 +21 +21 комфорт 1011.6 1008.6 +17.2 +18.8
03 20.04 В 2 10 км в посл. час дождь {морось} 10/8 450 м
[St As op]
+17.7 +17.4 98 +18 +18 1010.9 1007.8
06 20.04 ЮЗ 2 10 км {дождь, морось} 10/10 450 м
[St]
+17.5 +17.0 97 +18 +18 1009.9 1006.9 0.6
09 20.04 ЮЗ 1 10 км дымка 10/10 450 м
[St]
+16.9 +16.2 96 +18 +18 1009.2 1006.2
12 20.04 Ю 3 9000 м дымка 10/10 450 м
[St]
+17.1 +16.4 96 +17 +17 1010.1 1007.0 +16.8 +18.6 0.9
15 20.04 ЮЗ 3 10 км 1/1 540 м
[Cu hum]
+22.7 +15.6 64 +27 +34 душно 1009.7 1006.8
18 20.04 ЮЗ 3 10 км 4/4 540 м
[Cu hum]
+25.6 +14.7 51 +28 +32 жарко 1007.1 1004.2
21 20.04 ЮЗ 1 10 км 8/8 540 м
[Cu Sc]
+22.7 +15.6 64 +27 +27 душно 1006.9 1004.0
00 21.04 ЮЗ 1 10 км 9/3 600 м
[Sc Ac trans]
+19.6 +14.5 72 +22 +22 комфорт 1008.3 1005.4 +17.1 +25.8
03 21.04 штиль 0 10 км 10/10 600 м
[Sc]
+18.4 +13.9 75 +19 +19 1008.7 1005.8
06 21.04 ЮЗ 1 10 км 9/0
[Ac As]
+16.2 +13.7 85 +17 +17 1009.0 1006.1
09 21.04 Ю 2 10 км 9/0
[Ac As Cs]
+16.2 +12.2 77 +17 +17 1009.8 1006.9
12 21.04 ЮЗ 2 10 км 4/0
[Ac As]
+18.0 +12.1 68 +19 +20 1011.8 1008.8 +15.4 +19.6
15 21.04 ЮЗ 4 10 км ясно +24.0 +11.8 46 +26 +32 жарко 1012.4 1009.4
18 21.04 ЮЗ 5 10 км 3/3 600 м
[Cu hum]
+25.3 +11.6 42 +27 +29 жарко 1011.3 1008.4
21 21.04 Ю 1 10 км ясно +21.0 +4.9 35 +23 +23 комфорт 1012.7 1009.7
00 22.04 Ю 2 10 км ясно +17.4 +7.1 51 +18 +18 1015.5 1012.5 +17.4 +26.0
03 22.04 штиль 0 10 км ясно +14.2 +8.3 68 +14 +14 1017.8 1014.8
06 22.04 штиль 0 10 км ясно +11.3 +8.1 81 +11 +11 1018.2 1015.2
09 22.04 штиль 0 10 км ясно +9.3 +7.9 91 +8 +8 1018.9 1016.0
12 22.04 штиль 0 10 км 8/0
[Ac trans Cc]
+12.2 +10.1 87 +12 +13 1019.7 1016.8 +9.0 +17.5
15 22.04 С 2 10 км 9/0
[Ac As Cc]
+18.3 +8.1 51 +19 +24 1020.5 1017.6
18 22.04 З 3 10 км 10/0
[Ac As]
+18.5 +8.1 51 +19 +21 1019.6 1016.6
21 22.04 СЗ 1 10 км 9/0
[Ac As Cs]
+17.2 +9.9 62 +18 +18 1019.8 1016.8
00 23.04 СЗ 2 10 км ясно +12.9 +10.6 86 +12 +12 1020.5 1017.6 +12.2 +19.0
03 23.04 СЗ 1 10 км ясно +11.7 +10.4 92 +12 +12 1020.4 1017.4
06 23.04 З 2 10 км ясно +11.1 +9.3 89 +10 +10 1020.5 1017.6
09 23.04 СЗ 2 10 км 4/0
[Ac trans]
+11.7 +9.8 88 +11 +11 1019.9 1016.9
12 23.04 СЗ 2 10 км 4/0
[Ac trans]
+14.8 +10.3 74 +15 +16 1020.4 1017.4 +11.1 +14.8
15 23.04 С 1 10 км ясно +21.2 +11.4 54 +23 +34 комфорт 1019.9 1016.9
18 23.04 С 3 10 км 4/0
[Cc]
+22.0 +10.9 49 +24 +29 комфорт 1017.6 1014.6
21 23.04 СЗ 2 10 км 6/0
[Ac As Cs]
+20.7 +9.6 49 +23 +23 комфорт 1016.5 1013.6
00 24.04 С 3 10 км 9/1 600 м
[Sc Ac As Cs]
+18.5 +13.8 74 +19 +19 1016.5 1013.6 +14.8 +23.3
03 24.04 СЗ 4 10 км 10/0
[Ac As]
+19.3 +11.2 59 +20 +20 1016.4 1013.4
06 24.04 СВ 2 10 км 10/10 450 м
[St]
+18.3 +12.0 67 +19 +19 1016.7 1013.7
09 24.04 С 2 10 км 10/10 450 м
[St]
+18.0 +11.5 66 +19 +19 1015.8 1012.8
12 24.04 С 3 10 км 9/0
[Ac As]
+18.3 +12.4 68 +19 +19 1015.3 1012.2 +15.7 +19.5
15 24.04 С 3 10 км 8/0
[Ac trans]
+20.8 +13.6 63 +24 +28 комфорт 1014.2 1011.3
18 24.04 С 4 10 км 3/0
[Ac trans Cs]
+22.8 +13.6 56 +26 +30 жарко 1011.5 1008.6
21 24.04 С 1 10 км 3/0
[Ac trans Cs]
+21.0 +14.2 65 +25 +25 комфорт 1010.8 1007.8
00 25.04 В 2 10 км 1/0
[Ac trans]
+16.0 +14.6 91 +16 +16 1010.9 1007.8 +16.0 +23.4
03 25.04 штиль 0 10 км ясно +14.5 +14.0 97 +14 +14 1010.4 1007.4
06 25.04 штиль 0 9000 м дымка ясно +13.6 +13.4 99 +13 +13 1008.6 1005.7
09 25.04 штиль 0 8000 м дымка 1/0
[Cs]
+13.0 +13.0 100 +12 +12 1007.1 1004.1
12 25.04 С 1 10 км 10/10 540 м
[St]
+17.7 +17.0 96 +19 +19 1007.4 1004.4 +13.0 +17.7

 

Местоположение метеостанции Buenos Aires (Аргентина): широта -34.58 долгота -58.48 высота над уровнем моря 25 м.

В архиве по умолчанию представлена погода в Buenos Aires за последнюю неделю. Архивные данные за месяц целиком и за предыдущие месяцы, начиная с января 2011 года, Вы можете получить, выбрав интересующий диапазон дат из раскрывающегося списка и нажав кнопку "Ввод!".

Внимание! Время в таблицах - всемирное. Для получения местного времени необходимо прибавить поправку, которая в Buenos Aires равна -3 ч.

Смотрите также архив погоды в соседних городах и на ближайших метеорологических станциях:

Погода в Buenos Aires Aeropuerto (Аргентина) (7 км)
Погода в Ezeiza (Аргентина) (26 км)
Погода в Colonia (Уругвай) (61 км)
Погода в La Plata (Аргентина) (68 км)
Погода в Mercedes (Уругвай) (153 км)
Погода в Las Flores (Аргентина) (175 км)
Погода в Gualeguaychu (Аргентина) (176 км)
Погода в Melilla (Уругвай) (205 км)
Погода в Dolores (Аргентина) (205 км)
Погода в Prado (Уругвай) (211 км)

Пояснения к столбцам:

Ветер - указаны скорость ветра в м/с - средняя за 10 мин, порывы в срок и между сроками (в фигурных скобках) и направление, откуда дует ветер: С - северный, СВ - северо-восточный, В - восточный, ЮВ - юго-восточный, Ю - южный, ЮЗ - юго-западный, З - западный, СЗ - северо-западный.
Видимость - горизонтальная дальность видимости в метрах или километрах. При видимости от 1 до 10 км при отсутствии осадков обычно наблюдается дымка, при ухудшении видимости до 1 км и менее - туман. В сухую погоду видимость может ухудшаться дымом, пылью или мглою.
Явления - указаны атмосферные явления, наблюдавшиеся в срок или в последний час перед сроком; фигурными скобками обозначены явления, наблюдавшиеся между сроками (за 1-3 часа до срока); квадратными скобками обозначены град или гололедные отложения с указанием их диаметра в мм.
Облачность - указаны через наклонную черту общая и нижняя облачность в баллах и высота нижней границы облаков в метрах; квадратными скобками обозначены формы облаков: Ci - перистые, Cs - перисто-слоистые, Cc - перисто-кучевые, Ac - высококучевые, As - высокослоистые, Sc - слоисто-кучевые, Ns - слоисто-дождевые, Cu - кучевые, Cb - кучево-дождевые. Подробнее классификацию облаков см. в Атласе облаков (PDF).
T - Температура воздуха - температура, измеренная на высоте 2 м над землей.
Td - Температура точки росы - температура, при понижении до которой содержащийся в воздухе водяной пар достигнет насыщения.
f - Относительная влажность воздуха - влажноcть воздуха, измеренная на высоте 2 м над землей.
Te - Эффективная температура - температура, которую ощущает одетый по сезону человек в тени. Характеристика душности погоды. При расчете учитывается влияние влажности воздуха и скорости ветра на теплоощущения человека.
Tes - Эффективная температура на солнце - температура, которую ощущает человек, с поправкой на солнечный нагрев. Характеристика знойности погоды. Зависит от высоты солнца над горизонтом, облачности и скорости ветра. Ночью, в пасмурную погоду, а также при ветре 12 м/с и более поправка равна нулю.
P - Атмосферное давление - приведенное к уровню моря атмосферное давление.
Po - Атмосферное давление - измеренное на уровне метеостанции атмосферное давление.
Tmin - Минимальная температура - минимум температуры воздуха на высоте 2 м над землей.
Tmax - Максимальная температура - максимум температуры воздуха на высоте 2 м над землей.
R - Количество осадков - Количество выпавших осадков за период времени, мм. При наведении курсора мыши на число - период времени, за который выпало указанное количество осадков.
R24 - Количество осадков - Количество выпавших осадков за 24 часа, мм.
S - Снежный покров - Высота снежного покрова, см. При наведении курсора мыши на число - состояние снежного покрова и степень покрытия местности в баллах.